GLOBALSTAR M038 [-]

Last updated on July 6, 2021, 3:36 p.m. UTC

1 25624U 99004D   21186.94139236 -.00000082  00000-0  10452-3 0  9992
2 25624  51.9969 264.7407 0001407 258.8782 272.6537 12.32453679 24530
UTC
Height (km)
Latitude
Longitude
Inclination
Orbital Period
UTC large
Height (km)
Speed (km/s)
/
Latitude / Longitude
Inclination (degrees)
Orbital Period (minutes)
Azimuth
Elevation
Range (km)
Doppler Factor
iOS Compass Heading
iOS Angle